Weather History for Hettinger, ND

Change the Weather History Date:

Tuesday, March 5, 2013

  Actual Average Record
Temperature  
Mean Temperature 16 °F -  
Max Temperature 23 °F 36 °F 64 °F (2005)
Min Temperature 9 °F 15 °F -4 °F (1998)
Degree Days  
Heating Degree Days 49 39  
Month to date heating degree days 172 200  
Since 1 July heating degree days 6130 6516  
Cooling Degree Days 0 0  
Month to date cooling degree days 0 0  
Year to date cooling degree days 0 0  
Moisture  
Dew Point 10 °F    
Average Humidity 79    
Maximum Humidity 88    
Minimum Humidity 68    
Precipitation  
Precipitation T in 0.02 in 0.05 in (2002)
Month to date precipitation 0.19 0.07  
Year to date precipitation 0.32 0.80  
Sea Level Pressure  
Sea Level Pressure 30.38 in    
Wind  
Wind Speed 10 mph (NNW)    
Max Wind Speed 23 mph    
Max Gust Speed 29 mph    
Visibility 6 miles    
Events Snow    
T = Trace of Precipitation, MM = Missing Value Source: NWS Daily Summary

Daily Weather History Graph

Daily Weather History Graph

Search for Another Location

Airport:

Trip Planner

Search our weather history database for the weather conditions in past years. The results will help you decide how hot, cold, wet, or windy it might be!

Date:

Astronomy

Mar. 05, 2013 Rise Set
Actual Time 6:21 AM MST 5:43 PM MST
Civil Twilight 5:51 AM MST 6:13 PM MST
Nautical Twilight 5:17 AM MST 6:47 PM MST
Astronomical Twilight 4:42 AM MST 7:22 PM MST
Moon 1:50 AM MST (3/5) 11:09 AM MST (3/5)
Length of Visible Light 12h 21m
Length of Day
11h 21m
Last Quarter, 40% of the Moon is Illuminated
Mar 5
Last Quarter
Mar 11
New
Mar 19
First Quarter
Mar 27
Full
Apr 2
Last Quarter

Hourly Weather History & Observations

Time (MST) Temp. Windchill Dew Point Humidity Pressure Visibility Wind Dir Wind Speed Gust Speed Precip Events Conditions
12:48 AM 10.4 °F -8.2 °F 6.8 °F 85% 30.22 in 9.0 mi NW 19.6 mph 28.8 mph 0.00 in Snow Light Snow
12:53 AM 10.9 °F -7.9 °F 6.1 °F 81% 30.36 in 9.0 mi NW 20.7 mph 28.8 mph 0.00 in Snow Light Snow
2:13 AM 10.4 °F -7.7 °F 5.0 °F 79% 30.25 in 8.0 mi NW 18.4 mph - 0.00 in Snow Light Snow
2:43 AM 10.4 °F -6.6 °F 5.0 °F 79% 30.26 in 5.0 mi NW 16.1 mph 27.6 mph 0.00 in Snow Light Snow
2:53 AM 10.0 °F -6.5 °F 5.0 °F 80% 30.42 in 4.0 mi NW 15.0 mph 23.0 mph 0.00 in Snow Light Snow
3:53 AM 10.9 °F -5.4 °F 6.1 °F 81% 30.43 in 5.0 mi NW 15.0 mph - 0.00 in Snow Light Snow
4:18 AM 10.4 °F -7.7 °F 6.8 °F 85% 30.29 in 5.0 mi NW 18.4 mph - 0.00 in Snow Light Snow
4:53 AM 10.9 °F -4.7 °F 6.1 °F 81% 30.45 in 6.0 mi NW 13.8 mph - 0.00 in Snow Light Snow
6:53 AM 10.9 °F -6.5 °F 7.0 °F 84% 30.47 in 4.0 mi NNW 17.3 mph - 0.00 in Snow Light Snow
7:48 AM 10.4 °F -5.4 °F 6.8 °F 85% 30.33 in 3.0 mi NNW 13.8 mph - 0.00 in Snow Light Snow
7:53 AM 10.9 °F -4.7 °F 7.0 °F 84% 30.48 in 3.0 mi NNW 13.8 mph - 0.00 in Snow Light Snow
8:09 AM 12.2 °F -3.1 °F 6.8 °F 79% 30.33 in 2.0 mi NNW 13.8 mph - 0.00 in Snow Light Snow
8:53 AM 14.0 °F 0.5 °F 8.1 °F 77% 30.50 in 2.0 mi NW 11.5 mph - 0.00 in Snow Light Snow
9:04 AM 14.0 °F 2.0 °F 8.6 °F 79% 30.34 in 1.8 mi NNW 9.2 mph - 0.00 in Snow Light Snow
9:15 AM 14.0 °F -0.8 °F 8.6 °F 79% 30.34 in 2.0 mi NNW 13.8 mph - 0.00 in Snow Light Snow
9:27 AM 15.8 °F 4.2 °F 8.6 °F 73% 30.35 in 3.0 mi NW 9.2 mph - 0.00 in Snow Light Snow
9:38 AM 15.8 °F 3.4 °F 10.4 °F 79% 30.35 in 2.5 mi NW 10.4 mph - 0.00 in Snow Light Snow
9:53 AM 16.0 °F 2.9 °F 10.0 °F 77% 30.51 in 2.0 mi WNW 11.5 mph - 0.00 in Snow Light Snow
10:22 AM 17.6 °F 6.4 °F 10.4 °F 73% 30.34 in 1.8 mi NNW 9.2 mph - 0.00 in Snow Light Snow
10:49 AM 17.6 °F 5.7 °F 10.4 °F 73% 30.35 in 2.5 mi NNW 10.4 mph - 0.00 in Snow Light Snow
10:53 AM 18.0 °F 6.1 °F 12.0 °F 78% 30.50 in 2.5 mi NNW 10.4 mph - 0.00 in Snow Light Snow
11:35 AM 19.4 °F 7.2 °F 12.2 °F 74% 30.34 in 3.0 mi NNW 11.5 mph - 0.00 in Snow Light Snow
11:53 AM 18.0 °F 8.7 °F 10.9 °F 74% 30.49 in 5.0 mi NNW 6.9 mph - 0.00 in   Haze
12:53 PM 19.0 °F 12.3 °F 12.0 °F 74% 30.49 in 7.0 mi NW 4.6 mph - 0.00 in   Overcast
1:48 PM 21.2 °F 12.6 °F 14.0 °F 74% 30.31 in 10.0 mi North 6.9 mph - N/A   Partly Cloudy
1:53 PM 21.0 °F 13.4 °F 12.9 °F 71% 30.45 in 10.0 mi North 5.8 mph - N/A   Partly Cloudy
2:53 PM 21.0 °F 12.4 °F 14.0 °F 74% 30.45 in 10.0 mi ENE 6.9 mph - N/A   Mostly Cloudy
3:53 PM 19.9 °F 11.1 °F 14.0 °F 78% 30.44 in 10.0 mi ENE 6.9 mph - N/A   Overcast
4:53 PM 19.9 °F - 12.9 °F 74% 30.43 in 10.0 mi Calm Calm - N/A   Overcast
5:53 PM 19.0 °F - 12.0 °F 74% 30.43 in 10.0 mi Calm Calm - N/A   Overcast
6:16 PM 19.4 °F 14.3 °F 12.2 °F 74% 30.29 in 10.0 mi East 3.5 mph - N/A   Overcast
6:53 PM 19.0 °F 13.9 °F 12.9 °F 77% 30.43 in 10.0 mi SSE 3.5 mph - N/A   Overcast
7:53 PM 19.0 °F 11.1 °F 12.9 °F 77% 30.43 in 10.0 mi East 5.8 mph - N/A   Overcast
8:48 PM 17.6 °F 7.3 °F 12.2 °F 79% 30.27 in 10.0 mi ESE 8.1 mph - N/A   Overcast
8:53 PM 18.0 °F 8.7 °F 12.9 °F 81% 30.42 in 10.0 mi ESE 6.9 mph - N/A   Overcast
9:53 PM 15.1 °F 4.2 °F 12.0 °F 88% 30.41 in 10.0 mi ESE 8.1 mph - N/A   Overcast
10:17 PM 14.0 °F 1.2 °F 10.4 °F 86% 30.26 in 10.0 mi ESE 10.4 mph - N/A   Scattered Clouds
10:53 PM 12.9 °F 0.7 °F 9.0 °F 84% 30.40 in 10.0 mi SE 9.2 mph - N/A   Clear
11:53 PM 10.9 °F 0.2 °F 8.1 °F 88% 30.40 in 10.0 mi ESE 6.9 mph - N/A   Clear